| time (UTC) | temp F | wind direction | speed MPH | gust MPH | rain 1hr in | rain 24hr in | rain mn in | humidity % | barometer mb |
| 20260505005755 | 45 | 296 | 18.0 | 26.0 | 0.00 | 0.00 | 0.00 | 43 | 1013.0 |
| 20260505004753 | 46 | 304 | 20.0 | 28.0 | 0.00 | 0.00 | 0.00 | 44 | 1012.8 |
| 20260505003755 | 45 | 316 | 20.0 | 26.0 | 0.00 | 0.00 | 0.00 | 45 | 1012.9 |
| 20260505002753 | 45 | 304 | 20.0 | 30.0 | 0.00 | 0.00 | 0.00 | 42 | 1013.0 |
| 20260505001740 | 46 | 298 | 18.0 | 26.0 | 0.00 | 0.00 | 0.00 | 44 | 1012.7 |
| 20260505000743 | 46 | 315 | 10.0 | 28.0 | 0.00 | 0.00 | 0.00 | 47 | 1012.6 |
| 20260504235744 | 46 | 323 | 26.0 | 26.0 | 0.00 | 0.00 | 0.00 | 45 | 1012.7 |
| 20260504234746 | 46 | 304 | 23.0 | 29.0 | 0.00 | 0.00 | 0.00 | 45 | 1012.5 |
| 20260504233805 | 46 | 300 | 28.0 | 28.0 | 0.00 | 0.00 | 0.00 | 46 | 1012.5 |
| 20260504232752 | 46 | 277 | 23.0 | 28.0 | 0.00 | 0.00 | 0.00 | 46 | 1012.3 |
| 20260504231753 | 47 | 298 | 27.0 | 29.0 | 0.00 | 0.00 | 0.00 | 45 | 1012.2 |
| 20260504230753 | 47 | 306 | 21.0 | 28.0 | 0.00 | 0.00 | 0.00 | 46 | 1012.2 |
| 20260504225815 | 47 | 286 | 22.0 | 32.0 | 0.00 | 0.00 | 0.00 | 44 | 1012.0 |
| 20260504224755 | 48 | 309 | 24.0 | 32.0 | 0.00 | 0.00 | 0.00 | 43 | 1011.9 |
| 20260504223759 | 48 | 288 | 26.0 | 32.0 | 0.00 | 0.00 | 0.00 | 43 | 1012.0 |
| 20260504222759 | 49 | 294 | 19.0 | 40.0 | 0.00 | 0.00 | 0.00 | 44 | 1011.7 |
| 20260504221759 | 48 | 304 | 23.0 | 33.0 | 0.00 | 0.00 | 0.00 | 45 | 1011.9 |
| 20260504220740 | 49 | 295 | 23.0 | 35.0 | 0.00 | 0.00 | 0.00 | 42 | 1011.7 |
| 20260504215745 | 47 | 282 | 25.0 | 34.0 | 0.00 | 0.00 | 0.00 | 45 | 1011.4 |
| 20260504214745 | 49 | 293 | 27.0 | 36.0 | 0.00 | 0.00 | 0.00 | 42 | 1011.5 |
| 20260504213748 | 48 | 304 | 23.0 | 32.0 | 0.00 | 0.00 | 0.00 | 43 | 1011.5 |
| 20260504212749 | 48 | 294 | 23.0 | 32.0 | 0.00 | 0.00 | 0.00 | 43 | 1011.4 |
| 20260504211754 | 48 | 290 | 19.0 | 33.0 | 0.00 | 0.00 | 0.00 | 42 | 1011.4 |
| 20260504210755 | 49 | 315 | 24.0 | 33.0 | 0.00 | 0.00 | 0.00 | 42 | 1011.5 |
| 20260504205755 | 49 | 290 | 26.0 | 33.0 | 0.00 | 0.00 | 0.00 | 41 | 1011.5 |
| 20260504204819 | 49 | 298 | 15.0 | 36.0 | 0.00 | 0.00 | 0.00 | 41 | 1011.4 |
| 20260504203759 | 50 | 317 | 22.0 | 33.0 | 0.00 | 0.00 | 0.00 | 40 | 1011.4 |
| 20260504202742 | 49 | 321 | 18.0 | 32.0 | 0.00 | 0.00 | 0.00 | 40 | 1011.5 |
| 20260504201743 | 50 | 305 | 21.0 | 32.0 | 0.00 | 0.00 | 0.00 | 40 | 1011.4 |
| 20260504200744 | 51 | 275 | 29.0 | 32.0 | 0.00 | 0.00 | 0.00 | 40 | 1011.2 |
| 20260504195745 | 50 | 302 | 20.0 | 33.0 | 0.00 | 0.00 | 0.00 | 40 | 1011.2 |
| 20260504194750 | 49 | 317 | 26.0 | 32.0 | 0.00 | 0.00 | 0.00 | 39 | 1011.2 |
| 20260504193811 | 49 | 292 | 29.0 | 33.0 | 0.00 | 0.00 | 0.00 | 41 | 1012.2 |
| 20260504192751 | 50 | 296 | 26.0 | 38.0 | 0.00 | 0.00 | 0.00 | 41 | 1012.2 |
| 20260504191757 | 51 | 313 | 23.0 | 35.0 | 0.00 | 0.00 | 0.00 | 41 | 1011.9 |
| 20260504190817 | 49 | 296 | 21.0 | 32.0 | 0.00 | 0.00 | 0.00 | 42 | 1011.9 |
| 20260504185759 | 49 | 300 | 28.0 | 32.0 | 0.00 | 0.00 | 0.00 | 41 | 1012.0 |
| 20260504184740 | 50 | 288 | 22.0 | 39.0 | 0.00 | 0.00 | 0.00 | 41 | 1011.8 |
| 20260504183803 | 50 | 294 | 29.0 | 31.0 | 0.00 | 0.00 | 0.00 | 40 | 1011.7 |
| 20260504182743 | 50 | 279 | 24.0 | 39.0 | 0.00 | 0.00 | 0.00 | 39 | 1011.6 |
| 20260504181751 | 49 | 284 | 24.0 | 33.0 | 0.00 | 0.00 | 0.00 | 40 | 1011.7 |
| 20260504180754 | 51 | 294 | 17.0 | 32.0 | 0.00 | 0.00 | 0.00 | 40 | 1011.6 |
| 20260504175817 | 50 | 298 | 20.0 | 34.0 | 0.00 | 0.00 | 0.00 | 39 | 1011.7 |
| 20260504174817 | 49 | 300 | 18.0 | 32.0 | 0.00 | 0.00 | 0.00 | 42 | 1011.8 |
| 20260504173756 | 49 | 321 | 27.0 | 33.0 | 0.00 | 0.00 | 0.00 | 42 | 1011.7 |
| 20260504172742 | 49 | 294 | 31.0 | 33.0 | 0.00 | 0.00 | 0.00 | 41 | 1011.7 |
| 20260504171804 | 49 | 283 | 23.0 | 34.0 | 0.00 | 0.00 | 0.00 | 41 | 1011.8 |
| 20260504170745 | 50 | 289 | 23.0 | 32.0 | 0.00 | 0.00 | 0.00 | 40 | 1011.6 |
| 20260504150753 | 47 | 288 | 16.0 | 29.0 | 0.00 | 0.00 | 0.00 | 46 | 1011.8 |
| 20260504140750 | 45 | 285 | 19.0 | 31.0 | 0.00 | 0.00 | 0.00 | 51 | 1011.9 |
| 20260504130744 | 43 | 289 | 18.0 | 18.0 | 0.00 | 0.00 | 0.00 | 54 | 1011.6 |
| 20260504081758 | 53 | 290 | 15.0 | 29.0 | 0.00 | 0.00 | 0.00 | 44 | 1008.5 |
| 20260504080820 | 53 | 292 | 17.0 | 27.0 | 0.00 | 0.00 | 0.00 | 43 | 1008.4 |
| 20260504045742 | 57 | 313 | 17.0 | 19.0 | 0.00 | 0.00 | 0.00 | 38 | 1005.1 |
| 20260504044742 | 57 | 318 | 12.0 | 18.0 | 0.00 | 0.00 | 0.00 | 37 | 1004.9 |
| 20260504043750 | 57 | 321 | 7.0 | 12.0 | 0.00 | 0.00 | 0.00 | 37 | 1004.7 |
| 20260504042750 | 58 | 315 | 6.0 | 15.0 | 0.00 | 0.00 | 0.00 | 37 | 1004.6 |
| 20260504041814 | 58 | 334 | 13.0 | 20.0 | 0.00 | 0.00 | 0.00 | 35 | 1004.4 |
| 20260504040754 | 59 | 335 | 13.0 | 20.0 | 0.00 | 0.00 | 0.00 | 35 | 1004.5 |
| 20260504035759 | 59 | 323 | 13.0 | 20.0 | 0.00 | 0.00 | 0.00 | 34 | 1004.2 |
| 20260504034818 | 60 | 325 | 12.0 | 23.0 | 0.00 | 0.00 | 0.00 | 34 | 1004.0 |
| 20260504033743 | 61 | 308 | 16.0 | 25.0 | 0.00 | 0.00 | 0.00 | 34 | 1003.9 |
| 20260504032742 | 62 | 319 | 21.0 | 23.0 | 0.00 | 0.00 | 0.00 | 34 | 1003.8 |
| 20260504031742 | 62 | 311 | 11.0 | 16.0 | 0.00 | 0.00 | 0.00 | 37 | 1003.6 |
| 20260504030746 | 63 | 309 | 14.0 | 22.0 | 0.00 | 0.00 | 0.00 | 36 | 1003.4 |
| 20260504025750 | 64 | 321 | 13.0 | 22.0 | 0.00 | 0.00 | 0.00 | 35 | 1003.3 |
| 20260504024751 | 65 | 313 | 16.0 | 22.0 | 0.00 | 0.00 | 0.00 | 34 | 1002.8 |
| 20260504023753 | 66 | 304 | 15.0 | 26.0 | 0.00 | 0.00 | 0.00 | 33 | 1002.7 |
| 20260504022758 | 66 | 288 | 15.0 | 22.0 | 0.00 | 0.00 | 0.00 | 32 | 1002.5 |
| 20260504021743 | 66 | 290 | 17.0 | 23.0 | 0.00 | 0.00 | 0.00 | 31 | 1002.3 |
| 20260504020745 | 67 | 288 | 21.0 | 23.0 | 0.00 | 0.00 | 0.00 | 31 | 1002.2 |
| 20260504015806 | 68 | 294 | 18.0 | 23.0 | 0.00 | 0.00 | 0.00 | 30 | 1002.2 |
| 20260504014805 | 68 | 294 | 19.0 | 23.0 | 0.00 | 0.00 | 0.00 | 30 | 1002.0 |
| 20260504013753 | 69 | 277 | 20.0 | 25.0 | 0.00 | 0.00 | 0.00 | 30 | 1002.0 |
| 20260504012754 | 70 | 298 | 17.0 | 28.0 | 0.00 | 0.00 | 0.00 | 30 | 1002.1 |
| 20260504011816 | 70 | 292 | 26.0 | 28.0 | 0.00 | 0.00 | 0.00 | 29 | 1002.0 |
| 20260504010755 | 71 | 293 | 21.0 | 32.0 | 0.00 | 0.00 | 0.00 | 29 | 1002.0 |